History for TKI, Texas on Wednesday, October 6, 2004

Jump to data by:

Latest visited Airport Codes: TKI

Data type:
 

« Previous Day | Next Day »

 
Daily Summary
Actual Average (KADS) Record (KADS)
Temperature
Mean Temperature 73 °F -  
Max Temperature 82 °F 78 °F 93 °F (2002)
Min Temperature 64 °F 61 °F 46 °F (2012)
Cooling Degree Days 8    
Growing Degree Days 23 (Base 50)    
Moisture
Dew Point 60 °F    
Average Humidity 66    
Maximum Humidity 93    
Minimum Humidity 52    
Precipitation
Precipitation 0.01 in - - ()
Sea Level Pressure
Sea Level Pressure 30.13 in    
Wind
Wind Speed 6 mph (SE)    
Max Wind Speed 12 mph    
Max Gust Speed 16 mph    
Visibility 10 miles    
Events Rain   
Averages and records for this station are not official NWS values.
Click here for data from the nearest station with official NWS data (KTKI).
Key: T is trace of precipitation, MM is missing value
Source: NWS Daily Summary
Seasonal Weather Averages
Time (CDT) Temp. Dew Point Humidity Sea Level Pressure Visibility Wind Direction Wind Speed Gust Speed Precip. Events Conditions
12:53 AM 68.0 °F 60.1 °F 76% 30.14 in 10.0 miles ESE 4.6 mph - N/A   Scattered Clouds
1:53 AM 68.0 °F 60.1 °F 76% 30.14 in 10.0 miles East 4.6 mph - N/A   Partly Cloudy
2:53 AM 68.0 °F 57.0 °F 68% 30.14 in 10.0 miles East 5.8 mph - N/A   Scattered Clouds
3:53 AM 66.9 °F 54.0 °F 63% 30.13 in 10.0 miles ESE 5.8 mph - N/A   Partly Cloudy
4:53 AM 66.0 °F 51.1 °F 59% 30.12 in 10.0 miles East 8.1 mph - N/A   Mostly Cloudy
5:53 AM 66.0 °F 48.0 °F 52% 30.13 in 10.0 miles ESE 6.9 mph - N/A   Clear
6:53 AM 64.9 °F 48.9 °F 56% 30.15 in 10.0 miles ESE 5.8 mph - N/A   Mostly Cloudy
7:53 AM 64.0 °F 50.0 °F 60% 30.17 in 10.0 miles Variable 3.5 mph - 0.00 in   Mostly Cloudy
8:53 AM 64.9 °F 52.0 °F 63% 30.18 in 10.0 miles East 4.6 mph - 0.00 in   Scattered Clouds
9:53 AM 66.9 °F 52.0 °F 59% 30.18 in 10.0 miles ESE 9.2 mph - N/A   Clear
10:53 AM 69.1 °F 55.0 °F 61% 30.18 in 10.0 miles ESE 10.4 mph - N/A   Clear
11:53 AM 73.0 °F 57.9 °F 59% 30.17 in 10.0 miles ESE 9.2 mph - N/A   Clear
12:53 PM 78.1 °F 62.1 °F 58% 30.14 in 10.0 miles Variable 6.9 mph - N/A   Clear
1:53 PM 81.0 °F 64.9 °F 58% 30.12 in 10.0 miles SSE 11.5 mph 16.1 mph N/A   Clear
2:53 PM 81.0 °F 64.9 °F 58% 30.11 in 10.0 miles SSE 9.2 mph - N/A   Partly Cloudy
3:53 PM 81.0 °F 66.0 °F 60% 30.09 in 10.0 miles SSE 10.4 mph - N/A   Clear
4:53 PM 82.0 °F 64.9 °F 56% 30.08 in 10.0 miles Variable 5.8 mph - N/A   Clear
5:53 PM 82.0 °F 64.9 °F 56% 30.09 in 10.0 miles SE 5.8 mph - N/A   Clear
6:53 PM 78.1 °F 66.0 °F 66% 30.09 in 10.0 miles SSE 4.6 mph - N/A   Clear
7:53 PM 75.0 °F 66.9 °F 76% 30.10 in 10.0 miles ESE 3.5 mph - N/A   Clear
8:53 PM 73.9 °F 66.9 °F 79% 30.12 in 9.0 miles SE 4.6 mph - N/A   Clear
9:53 PM 73.9 °F 68.0 °F 82% 30.14 in 8.0 miles SSE 9.2 mph - N/A   Partly Cloudy
10:53 PM 69.1 °F 66.0 °F 90% 30.15 in 10.0 miles South 10.4 mph - 0.00 in Rain Light Rain
11:53 PM 69.1 °F 66.9 °F 93% 30.14 in 10.0 miles SSE 5.8 mph - 0.01 in   Scattered Clouds

Powered by the Weather Underground, Inc.